This is the latest recevied weather packets stored in our database for station/object KE0PRS. If no packets are shown the sender has not sent any weather packets the latest 10 day(s).
| Time | Temp. | Humidity | Pressure | Rain* | Wind** | Luminosity | Snow |
|---|---|---|---|---|---|---|---|
| 1777927093 | 30.56° C | 18% | 1002.4 hPa | 0 mm | - | 623 W/m² | - |
| 1777926789 | 30.56° C | 18% | 1002.6 hPa | 0 mm | - | 694 W/m² | - |
| 1777926484 | 30.56° C | 18% | 1002.8 hPa | 0 mm | - | 634 W/m² | - |
| 1777926182 | 30.56° C | 18% | 1002.9 hPa | 0 mm | - | 630 W/m² | - |
| 1777925878 | 31.11° C | 18% | 1002.7 hPa | 0 mm | - | 645 W/m² | - |
| 1777925576 | 31.11° C | 18% | 1003 hPa | 0 mm | - | 631 W/m² | - |
| 1777925274 | 31.11° C | 18% | 1003.2 hPa | 0 mm | - | 662 W/m² | - |
| 1777924969 | 31.11° C | 18% | 1002.9 hPa | 0 mm | - | 606 W/m² | - |
| 1777924666 | 30.56° C | 18% | 1003.2 hPa | 0 mm | - | 774 W/m² | - |
| 1777924361 | 31.11° C | 18% | 1003.2 hPa | 0 mm | - | 776 W/m² | - |
| 1777924059 | 31.67° C | 18% | 1003.4 hPa | 0 mm | - | 779 W/m² | - |
| 1777923755 | 31.11° C | 19% | 1003.1 hPa | 0 mm | - | 793 W/m² | - |
| 1777923451 | 31.11° C | 19% | 1003.3 hPa | 0 mm | - | 799 W/m² | - |
| 1777923149 | 31.11° C | 18% | 1003.2 hPa | 0 mm | - | 805 W/m² | - |
| 1777922847 | 30.56° C | 19% | 1003.3 hPa | 0 mm | - | 811 W/m² | - |
| 1777922545 | 30.56° C | 19% | 1003.4 hPa | 0 mm | - | 814 W/m² | - |
| 1777922244 | 31.11° C | 18% | 1003.6 hPa | 0 mm | - | 825 W/m² | - |
| 1777921940 | 31.11° C | 18% | 1003.9 hPa | 0 mm | - | 714 W/m² | - |
| 1777921635 | 31.11° C | 19% | 1003.5 hPa | 0 mm | - | 741 W/m² | - |
| 1777921332 | 30.56° C | 19% | 1003.7 hPa | 0 mm | - | 812 W/m² | - |
| 1777921028 | 30.56° C | 19% | 1004 hPa | 0 mm | - | 664 W/m² | - |
| 1777920725 | 30.56° C | 19% | 1004 hPa | 0 mm | - | 518 W/m² | - |
| 1777920421 | 30.56° C | 19% | 1004.1 hPa | 0 mm | - | 663 W/m² | - |
| 1777920116 | 30.56° C | 18% | 1004.2 hPa | 0 mm | - | 864 W/m² | - |
| 1777919813 | 30.56° C | 19% | 1004.1 hPa | 0 mm | - | 572 W/m² | - |
* Rain latest hour (hover to see other rain measurements)
** Current wind speed in m/s (hover to see current wind gust speed)